{"data":{"norad_id":66467,"epoch":"2026-09-20T02:22:07.180608Z","epoch_age_seconds":124300,"freshness":"FRESH","line1":"1 66467U 25262M   26263.09869422  .00008070  00000+0  30245-3 0  9996","line2":"2 66467  43.0049 278.6939 0001487 271.6237  88.4444 15.27581802 48635","mean_motion":15.27581802,"eccentricity":0.0001487,"inclination_deg":43.0049,"raan_deg":278.6939,"arg_perigee_deg":271.6237,"mean_anomaly_deg":88.4444,"bstar":0.00030245,"rev_number":4863,"period_min":94.266637512614,"perigee_km":482.02344263857,"apogee_km":484.06395777881,"semimajor_km":6861.1807002087,"source":"CELESTRAK","updated_at":"2026-09-21T09:00:35.914541Z"}}